Location: Marsån
(66.4167°N, 22.2833°E)
Time: 10:20:18
(UTC+00:00)

SL-16 R/B - Pass Details

Date: 24 February 2024
Orbit: 985 x 1006 km, 99.7° (Epoch: 15 April)

Event Time Altitude Azimuth Distance (km) Brightness Sun altitude
Exits shadow 18:48:33 - 50° (NE) 3,506 5.2 -20.7°
Reaches altitude 10° 18:50:51 10° 40° (NE) 2,760 4.7 -20.9°
Maximum altitude 18:55:40 25° 348° (NNW) 1,896 4.4 -21.4°
Drops below altitude 10° 19:00:29 10° 297° (WNW) 2,756 6.0 -21.8°
Sets 19:03:22 0° 285° (WNW) 3,705 6.9 -22.1°
